Regional Weather Roundup
Issued by NWS

Home | Current Version | Previous Version | Graphics & Text | Print | Product List | Glossary On
Versions: 1 2 3 4 5 6 7 8 9 10 11 12 13 14 15 16 17 18 19 20 21 22 23 24 25 26 27 28 29 30 31 32 33 34 35 36 37 38 39 40 41 42 43 44 45 46 47 48 49 50
000
ASUS43 KIND 172309
RWRIN

WEATHER ROUNDUP FOR INDIANA
NATIONAL WEATHER SERVICE INDIANAPOLIS IN
600 PM EST WED DEC 17 2014

NOTE: "FAIR" INDICATES FEW OR NO CLOUDS BELOW 12,000 FEET WITH NO
SIGNIFICANT WEATHER AND/OR OBSTRUCTIONS TO VISIBILITY.

* - STATION DOES NOT REPORT WEATHER SUCH AS PRECIPITATION OR FOG.

+ - STATION NOT QUALITY CONTROLLED BY THE NATIONAL WEATHER SERVICE.
    USE DATA WITH CAUTION...ESPECIALLY DEWPOINT AND RELATIVE
    HUMIDITY OBSERVATIONS.

INZ001>003-010>013-019-020-180000-
NORTHWEST INDIANA

CITY           SKY/WX    TMP DP  RH WIND       PRES   REMARKS
GARY /AIRPORT/ CLOUDY    28  18  64 W14       30.26  WCI  17
KNOX *+        CLOUDY    26  20  77 W9        30.23S WCI  17
LA PORTE +     CLOUDY    28  22  79 W9        30.23R WCI  19
MICHIGAN CITY+ CLOUDY    28  18  64 W7        30.24R WCI  21
MONTICELLO +   CLOUDY    26  20  79 W9        30.25S WCI  16
RENSSELAER +   CLOUDY    28  25  86 W8        30.26R WCI  20
VALPARAISO     CLOUDY    25  19  78 W8        30.24S WCI  16

$$

LMZ046-743>745-180000-
SOUTHERN LAKE MICHIGAN

STATION/POSITION TIME  TEMP WIND        PRES
                       AIR  DIR/SP/G
                 (UTC) (F)  (DEG/KT/KT) (MB)

$$

INZ004-005-014>016-021>024-180000-
NORTH CENTRAL INDIANA

CITY           SKY/WX    TMP DP  RH WIND       PRES   REMARKS
GOSHEN         CLOUDY    27  21  78 W14       30.20R WCI  16
LOGANSPORT +   CLOUDY    27  19  74 W8        30.26R WCI  18
PERU/GRISSOM   CLOUDY    25  25  99 W12       30.24R WCI  14
ROCHESTER +    MOCLDY    28  23  80 W7        30.24R WCI  21
SOUTH BEND     CLOUDY    28  21  75 W10       30.22R WCI  19
WARSAW +       FLURRIES  27  23  86 W12       30.22R WCI  16

$$

INZ006>009-017-018-025>027-180000-
NORTHEAST INDIANA

CITY           SKY/WX    TMP DP  RH WIND       PRES   REMARKS
ANGOLA *+      CLOUDY    27  21  80 W7        30.16R WCI  19
AUBURN +       FLURRIES  28  23  80 W8G17     30.20R WCI  20
FORT WAYNE     FLURRIES  26  21  81 W14       30.22R WCI  14
HUNTINGTON +   CLOUDY    25  21  83 W7        30.22S WCI  17

$$

INZ028-029-035-036-043>045-051>053-180000-
WEST CENTRAL INDIANA

CITY           SKY/WX    TMP DP  RH WIND       PRES   REMARKS
CRAWFORDSVL +  CLOUDY    23  16  74 NW7       30.27  WCI  15
GREENCASTLE +  CLOUDY    25  18  74 W7        30.28R WCI  17
LAFAYETTE      CLOUDY    24  19  81 W8        30.28R WCI  15
TERRE HAUTE    CLOUDY    25  19  78 NW9       30.30S WCI  15

$$

INZ030>032-037>040-046>048-054>057-064-065-180000-
CENTRAL INDIANA

CITY           SKY/WX    TMP DP  RH WIND       PRES   REMARKS
CP ATTERBURY + CLOUDY    28  23  80 MISG      30.28S
COLUMBUS       CLOUDY    27  23  86 W7        30.28S WCI  19
FRANKFORT +    CLOUDY    25  25 100 W10       30.27R WCI  15
INDIANAPOLIS   CLOUDY    24  19  81 W12       30.26R WCI  13
-EAGLE CREEK   CLOUDY    23  20  88 W6        30.26R WCI  16
KOKOMO *+      CLOUDY    25  19  80 W14       30.24S WCI  13
MARION +       CLOUDY    25  22  91 W12       30.24S WCI  14
MT COMFORT *+  CLOUDY    25  21  86 W8        30.26R WCI  16
SHELBYVILLE    CLOUDY    27  21  78 W12       30.26R WCI  17
ZIONSVILLE +   CLOUDY    24  19  82 NW8       30.26R WCI  15

$$

INZ033-034-041-042-049-050-058-059-180000-
EAST CENTRAL INDIANA

CITY           SKY/WX    TMP DP  RH WIND       PRES   REMARKS
MUNCIE         CLOUDY    25  21  85 W12       30.23R WCI  14

$$

INZ060-061-067>069-081>083-085>088-180000-
SOUTHWEST INDIANA

CITY           SKY/WX    TMP DP  RH WIND       PRES   REMARKS
EVANSVILLE     CLOUDY    35  26  69 N3        30.29F
HUNTINGBURG *+ CLOUDY    32  23  69 N6        30.29F WCI  26
WASHINGTON +   CLOUDY    30  23  74 NW8       30.29S WCI  23

$$

INZ062-063-066-070>080-084-089>092-180000-
SOUTH CENTRAL AND SOUTHEAST INDIANA

CITY           SKY/WX    TMP DP  RH WIND       PRES   REMARKS
BLOOMINGTON    CLOUDY    26  21  81 NW6       30.26F WCI  19

$$



USA.gov is the U.S. government's official web portal to all federal, state and local government web resources and services.